Location: Gro�sch�nbrunn
(49.5760°N, 11.8868°E)
Time: 02:18:28
(UTC+00:00)

ERS-1 Rocket - Pass Details

Date: 18 September 2020
Orbit: 753 x 757 km, 98.5° (Epoch: 30 October)

Event Time Altitude Azimuth Distance (km) Brightness Sun altitude
Exits shadow 19:17:21 20° 62° (ENE) 1,717 4.5 -19.4°
Maximum altitude 19:17:38 20° 57° (ENE) 1,713 4.5 -19.4°
Drops below altitude 10° 19:21:12 10° 12° (NNE) 2,296 5.6 -19.9°
Sets 19:24:03 0° 356° (N) 3,227 6.7 -20.3°
